When you browse on this site, cookies collect data to enhance your experience and personalize the content and advertising you see.
Visit our Privacy Policy to learn more. By continuing to use the site, you agree to this use of cookies and data.
  • în România
  • Lista ţărilor
  • Pe 7 zile
  • Temperatura apei
  • Meteo pe hartă
  • Widget-uri
  • user-avatar
    Intrare

    Meteo pe oră la Albany

    Astăzi, 23 Octombrie, Miercuri

    Timp Temperatura Precipitaţii Vânt Presiune Umiditate
    00:00 +14°C° 0 mm 3 m/s 757 mmHg 92%
    01:00 +14°C° 0 mm 3 m/s 757 mmHg 92%
    02:00 +13°C° 0 mm 4 m/s 756 mmHg 92%
    03:00 +13°C° 0 mm 4 m/s 756 mmHg 92%
    04:00 +12°C° 0 mm 4 m/s 756 mmHg 93%
    05:00 +11°C° 0 mm 4 m/s 757 mmHg 93%
    06:00 +13°C° 0 mm 5 m/s 757 mmHg 87%
    07:00 +15°C° 0 mm 5 m/s 756 mmHg 82%
    08:00 +17°C° 0 mm 6 m/s 756 mmHg 76%
    09:00 +17°C° 0.2 mm 6 m/s 756 mmHg 78%
    10:00 +16°C° 0.2 mm 6 m/s 756 mmHg 80%
    11:00 +16°C° 0.2 mm 6 m/s 756 mmHg 82%
    12:00 +16°C° 0 mm 6 m/s 756 mmHg 76%
    13:00 +16°C° 0 mm 7 m/s 756 mmHg 71%
    14:00 +16°C° 0 mm 7 m/s 756 mmHg 65%
    15:00 +16°C° 0 mm 7 m/s 756 mmHg 64%
    16:00 +16°C° 0 mm 7 m/s 756 mmHg 63%
    17:00 +16°C° 0 mm 7 m/s 756 mmHg 63%
    18:00 +14°C° 0 mm 7 m/s 756 mmHg 66%
    19:00 +12°C° 0 mm 7 m/s 757 mmHg 69%
    20:00 +11°C° 0 mm 6 m/s 757 mmHg 73%
    21:00 +11°C° 0.1 mm 6 m/s 757 mmHg 76%
    22:00 +10°C° 0.1 mm 6 m/s 757 mmHg 79%
    23:00 +10°C° 0.1 mm 6 m/s 757 mmHg 83%

    Mâine, 24 Octombrie, Joi

    Timp Temperatura Precipitaţii Vânt Presiune Umiditate
    00:00 +10°C° 0.4 mm 7 m/s 757 mmHg 84%
    01:00 +10°C° 0.4 mm 7 m/s 757 mmHg 85%
    02:00 +10°C° 0.4 mm 7 m/s 757 mmHg 85%
    03:00 +10°C° 0.1 mm 7 m/s 757 mmHg 84%
    04:00 +9°C° 0.1 mm 6 m/s 758 mmHg 83%
    05:00 +9°C° 0.1 mm 6 m/s 758 mmHg 81%
    06:00 +10°C° 0 mm 6 m/s 758 mmHg 77%
    07:00 +11°C° 0 mm 6 m/s 758 mmHg 73%
    08:00 +12°C° 0 mm 7 m/s 759 mmHg 69%
    09:00 +14°C° 0 mm 7 m/s 759 mmHg 65%
    10:00 +15°C° 0 mm 7 m/s 759 mmHg 61%
    11:00 +16°C° 0 mm 7 m/s 759 mmHg 57%
    12:00 +16°C° 0 mm 8 m/s 759 mmHg 55%
    13:00 +17°C° 0 mm 9 m/s 758 mmHg 54%
    14:00 +17°C° 0 mm 9 m/s 758 mmHg 52%
    15:00 +16°C° 0 mm 9 m/s 758 mmHg 56%
    16:00 +16°C° 0 mm 9 m/s 759 mmHg 60%
    17:00 +15°C° 0 mm 9 m/s 759 mmHg 64%
    18:00 +13°C° 0 mm 8 m/s 759 mmHg 67%
    19:00 +12°C° 0 mm 8 m/s 760 mmHg 70%
    20:00 +11°C° 0 mm 7 m/s 760 mmHg 73%
    21:00 +11°C° 0.1 mm 7 m/s 760 mmHg 75%
    22:00 +11°C° 0.1 mm 6 m/s 760 mmHg 77%
    23:00 +11°C° 0.1 mm 6 m/s 761 mmHg 80%

    Poimâine, 25 Octombrie, Vineri

    Timp Temperatura Precipitaţii Vânt Presiune Umiditate
    00:00 +12°C° 0.1 mm 5 m/s 760 mmHg 82%
    01:00 +12°C° 0.1 mm 5 m/s 760 mmHg 83%
    02:00 +12°C° 0.1 mm 4 m/s 759 mmHg 85%
    03:00 +12°C° 0.1 mm 4 m/s 760 mmHg 87%
    04:00 +11°C° 0.1 mm 4 m/s 760 mmHg 89%
    05:00 +11°C° 0.1 mm 4 m/s 760 mmHg 91%
    06:00 +12°C° 0.1 mm 4 m/s 760 mmHg 89%
    07:00 +13°C° 0.1 mm 4 m/s 760 mmHg 86%
    08:00 +15°C° 0.1 mm 5 m/s 760 mmHg 84%
    09:00 +16°C° 0.2 mm 5 m/s 761 mmHg 78%
    10:00 +17°C° 0.2 mm 5 m/s 761 mmHg 73%
    11:00 +20°C° 0.2 mm 5 m/s 761 mmHg 67%
    12:00 +20°C° 0 mm 5 m/s 761 mmHg 67%
    13:00 +20°C° 0 mm 4 m/s 761 mmHg 67%
    14:00 +20°C° 0 mm 4 m/s 761 mmHg 67%
    15:00 +19°C° 0 mm 4 m/s 761 mmHg 69%
    16:00 +19°C° 0 mm 4 m/s 761 mmHg 71%
    17:00 +18°C° 0 mm 3 m/s 761 mmHg 73%
    18:00 +17°C° 0 mm 3 m/s 761 mmHg 79%
    19:00 +15°C° 0 mm 2 m/s 761 mmHg 85%
    20:00 +14°C° 0 mm 2 m/s 761 mmHg 90%
    21:00 +14°C° 0 mm 2 m/s 762 mmHg 88%
    22:00 +14°C° 0 mm 2 m/s 762 mmHg 87%
    23:00 +15°C° 0 mm 2 m/s 762 mmHg 85%

    26 Octombrie, Sâmbătă

    Timp Temperatura Precipitaţii Vânt Presiune Umiditate
    00:00 +15°C° 0 mm 2 m/s 762 mmHg 84%
    01:00 +15°C° 0 mm 2 m/s 761 mmHg 84%
    02:00 +15°C° 0 mm 2 m/s 761 mmHg 83%
    03:00 +14°C° 0 mm 2 m/s 761 mmHg 83%
    04:00 +14°C° 0 mm 2 m/s 761 mmHg 83%
    05:00 +14°C° 0 mm 1 m/s 761 mmHg 82%
    06:00 +15°C° 0 mm 1 m/s 761 mmHg 77%
    07:00 +17°C° 0 mm 2 m/s 762 mmHg 73%
    08:00 +18°C° 0 mm 2 m/s 762 mmHg 68%
    09:00 +20°C° 0 mm 1 m/s 762 mmHg 65%
    10:00 +20°C° 0 mm 1 m/s 762 mmHg 62%
    11:00 +21°C° 0 mm 1 m/s 762 mmHg 58%
    12:00 +20°C° 0 mm 2 m/s 762 mmHg 60%
    13:00 +20°C° 0 mm 2 m/s 761 mmHg 62%
    14:00 +20°C° 0 mm 3 m/s 761 mmHg 64%
    15:00 +19°C° 0 mm 3 m/s 761 mmHg 67%
    16:00 +19°C° 0 mm 3 m/s 761 mmHg 70%
    17:00 +18°C° 0 mm 3 m/s 760 mmHg 73%
    18:00 +17°C° 0 mm 3 m/s 761 mmHg 78%
    19:00 +15°C° 0 mm 2 m/s 761 mmHg 84%
    20:00 +14°C° 0 mm 2 m/s 761 mmHg 89%
    21:00 +14°C° 0 mm 2 m/s 761 mmHg 90%
    22:00 +13°C° 0 mm 2 m/s 761 mmHg 91%
    23:00 +13°C° 0 mm 2 m/s 761 mmHg 92%

    27 Octombrie, Duminică

    Timp Temperatura Precipitaţii Vânt Presiune Umiditate
    00:00 +13°C° 0 mm 2 m/s 760 mmHg 92%
    01:00 +12°C° 0 mm 3 m/s 760 mmHg 93%
    02:00 +12°C° 0 mm 3 m/s 759 mmHg 94%
    03:00 +11°C° 0 mm 3 m/s 759 mmHg 94%
    04:00 +11°C° 0 mm 3 m/s 759 mmHg 94%
    05:00 +11°C° 0 mm 4 m/s 759 mmHg 94%
    06:00 +13°C° 0 mm 4 m/s 758 mmHg 86%
    07:00 +15°C° 0 mm 4 m/s 758 mmHg 78%
    08:00 +17°C° 0 mm 4 m/s 758 mmHg 71%
    09:00 +20°C° 0 mm 4 m/s 758 mmHg 63%
    10:00 +22°C° 0 mm 4 m/s 757 mmHg 55%
    11:00 +26°C° 0 mm 4 m/s 757 mmHg 47%
    12:00 +27°C° 0 mm 4 m/s 756 mmHg 44%
    13:00 +28°C° 0 mm 4 m/s 755 mmHg 42%
    14:00 +29°C° 0 mm 4 m/s 755 mmHg 39%
    15:00 +27°C° 0 mm 4 m/s 754 mmHg 45%
    16:00 +26°C° 0 mm 3 m/s 754 mmHg 52%
    17:00 +25°C° 0 mm 3 m/s 754 mmHg 59%
    18:00 +22°C° 0 mm 3 m/s 754 mmHg 66%
    19:00 +19°C° 0 mm 2 m/s 754 mmHg 74%
    20:00 +17°C° 0 mm 2 m/s 754 mmHg 81%
    21:00 +17°C° 0 mm 2 m/s 754 mmHg 83%
    22:00 +16°C° 0 mm 3 m/s 753 mmHg 86%
    23:00 +16°C° 0 mm 3 m/s 753 mmHg 88%

    28 Octombrie, Luni

    Timp Temperatura Precipitaţii Vânt Presiune Umiditate
    00:00 +15°C° 0 mm 4 m/s 753 mmHg 89%
    01:00 +15°C° 0 mm 6 m/s 753 mmHg 89%
    02:00 +15°C° 0 mm 7 m/s 753 mmHg 89%
    03:00 +15°C° 0 mm 6 m/s 753 mmHg 87%
    04:00 +15°C° 0 mm 6 m/s 753 mmHg 85%
    05:00 +15°C° 0 mm 6 m/s 754 mmHg 83%
    06:00 +15°C° 0 mm 6 m/s 754 mmHg 82%
    07:00 +15°C° 0 mm 5 m/s 755 mmHg 82%
    08:00 +15°C° 0 mm 5 m/s 755 mmHg 81%
    09:00 +15°C° 0.1 mm 6 m/s 755 mmHg 81%
    10:00 +15°C° 0.1 mm 6 m/s 756 mmHg 80%
    11:00 +14°C° 0.1 mm 7 m/s 756 mmHg 80%
    12:00 +15°C° 0.1 mm 7 m/s 757 mmHg 78%
    13:00 +15°C° 0.1 mm 6 m/s 757 mmHg 75%
    14:00 +15°C° 0.1 mm 6 m/s 757 mmHg 73%
    15:00 +15°C° 0 mm 6 m/s 757 mmHg 71%
    16:00 +14°C° 0 mm 6 m/s 757 mmHg 68%
    17:00 +14°C° 0 mm 5 m/s 758 mmHg 66%
    18:00 +13°C° 0 mm 5 m/s 758 mmHg 68%
    19:00 +12°C° 0 mm 4 m/s 759 mmHg 70%
    20:00 +11°C° 0 mm 4 m/s 759 mmHg 72%
    21:00 +11°C° 0 mm 4 m/s 759 mmHg 71%
    22:00 +12°C° 0 mm 3 m/s 759 mmHg 70%
    23:00 +12°C° 0 mm 3 m/s 760 mmHg 69%
    Arată mai mult